Weather History for KMIB - February, 2013

Change the Weather History Date:

Tuesday, February 19, 2013

  Actual Average Record
Temperature  
Mean Temperature -14 °F -  
Max Temperature -5 °F 24 °F 45 °F (2012)
Min Temperature -23 °F 8 °F -25 °F (2008)
Degree Days  
Heating Degree Days 79    
Moisture  
Dew Point -21 °F    
Average Humidity 66    
Maximum Humidity 73    
Minimum Humidity 55    
Precipitation  
Precipitation 0.00 in - - ()
Snow  
Snow 0.00 in - - ()
Snow Depth 9.00 in    
Sea Level Pressure  
Sea Level Pressure 30.55 in    
Wind  
Wind Speed 9 mph (North)    
Max Wind Speed 15 mph    
Max Gust Speed -    
Visibility 10 miles    
Events Snow    
Averages and records for this station are not official NWS values.
T = Trace of Precipitation, MM = Missing Value Source: NWS Daily Summary

Daily Weather History Graph

Daily Weather History Graph

Search for Another Location

Airport or City:

Trip Planner

Search our weather history database for the weather conditions in past years. The results will help you decide how hot, cold, wet, or windy it might be!

Date:

Astronomy

Feb. 19, 2013 Rise Set
Actual Time 7:45 AM CST 6:14 PM CST
Civil Twilight 7:13 AM CST 6:46 PM CST
Nautical Twilight 6:36 AM CST 7:22 PM CST
Astronomical Twilight 6:00 AM CST 7:58 PM CST
Moon 12:32 PM CST (2/19) 3:33 AM CST (2/19)
Length of Visible Light 11h 32m
Length of Day
10h 29m
Waxing Gibbous, 67% of the Moon is Illuminated
Feb 19
Waxing Gibbous
Feb 25
Full
Mar 4
Last Quarter
Mar 11
New
Mar 19
First Quarter

Hourly Weather History & Observations

Time (CST) Temp. Windchill Dew Point Humidity Pressure Visibility Wind Dir Wind Speed Gust Speed Precip Events Conditions
12:55 AM -11.0 °F -31.8 °F -19.1 °F 67% 30.48 in 10.0 mi NW 12.7 mph - N/A   Clear
1:55 AM -11.0 °F -31.8 °F -19.3 °F 67% 30.49 in 10.0 mi NNW 12.7 mph - N/A   Clear
2:55 AM -13.4 °F -31.7 °F -21.6 °F 67% 30.50 in 10.0 mi NNW 9.2 mph - N/A   Clear
3:55 AM -17.3 °F -36.6 °F -25.4 °F 67% 30.51 in 10.0 mi NW 9.2 mph - N/A   Clear
4:55 AM -16.2 °F -37.5 °F -23.8 °F 69% 30.51 in 10.0 mi NNW 11.5 mph - N/A   Clear
5:55 AM -15.9 °F -34.8 °F -23.8 °F 67% 30.52 in 10.0 mi NNW 9.2 mph - N/A   Clear
6:55 AM -23.1 °F -40.7 °F -29.9 °F 70% 30.55 in 10.0 mi NW 6.9 mph - N/A   Clear
7:55 AM -20.9 °F -42.2 °F -27.0 °F 73% 30.56 in 10.0 mi NW 10.4 mph - N/A   Clear
8:55 AM -22.4 °F -41.4 °F -28.8 °F 72% 30.59 in 10.0 mi NW 8.1 mph - N/A   Clear
9:55 AM -16.2 °F -34.0 °F -23.3 °F 71% 30.59 in 10.0 mi NNW 8.1 mph - N/A   Clear
10:55 AM -14.6 °F -30.6 °F -22.2 °F 69% 30.59 in 10.0 mi North 6.9 mph - N/A   Clear
11:55 AM -12.6 °F -24.6 °F -20.9 °F 67% 30.60 in 10.0 mi North 4.6 mph - N/A   Clear
12:55 PM -10.1 °F -19.4 °F -18.6 °F 66% 30.59 in 10.0 mi NW 3.5 mph - N/A   Clear
1:55 PM -8.1 °F - -17.5 °F 64% 30.58 in 10.0 mi Calm Calm - N/A   Clear
2:55 PM -6.5 °F -15.3 °F -17.5 °F 59% 30.56 in 10.0 mi ESE 3.5 mph - 0.00 in Snow Light Snow
3:55 PM -5.8 °F - -18.2 °F 55% 30.56 in 10.0 mi Calm Calm - 0.00 in   Clear
4:55 PM -6.7 °F -22.3 °F -17.5 °F 59% 30.55 in 10.0 mi ESE 8.1 mph - N/A   Clear
5:55 PM -8.1 °F -19.4 °F -18.2 °F 61% 30.54 in 10.0 mi ENE 4.6 mph - N/A   Clear
6:55 PM -9.4 °F -24.3 °F -18.4 °F 65% 30.54 in 10.0 mi East 6.9 mph - N/A   Clear
7:55 PM -9.9 °F -23.4 °F -18.9 °F 65% 30.55 in 10.0 mi East 5.8 mph - N/A   Clear
8:55 PM -10.1 °F -26.5 °F -18.6 °F 66% 30.55 in 10.0 mi ESE 8.1 mph - N/A   Clear
9:55 PM -11.9 °F -29.9 °F -19.8 °F 68% 30.56 in 10.0 mi SE 9.2 mph - N/A   Clear
10:55 PM -11.6 °F -32.5 °F -20.6 °F 64% 30.53 in 10.0 mi SE 12.7 mph - N/A   Clear
11:55 PM -11.6 °F -34.2 °F -20.2 °F 66% 30.52 in 10.0 mi SE 15.0 mph - N/A   Clear